Lid_Strength_Index
0 0 0 0 0 -0 -0 -0 -0 -0 -0 -0 -0 -0 -0 -0 0 1 5 3 2 -3 -0 4 5 6 6 7 7 8 13 14 13 12 12 9 10 9 9 10 10 8 9 8 6
1 1 1 1 0 0 -0 -0 -0 -0 -0 -0 -0 -0 -0 -0 2 5 1 -3 -3 -2 4 6 7 7 9 8 8 10 13 12 10 12 11 10 11 12 12 11 10 10 9 7 7
1 1 1 1 0 0 -0 -0 -0 -0 -0 -1 -0 -0 -0 1 5 5 -1 -2 -2 -1 4 5 6 7 9 9 9 9 12 10 9 9 9 9 10 10 12 12 10 11 10 9 7
0 1 1 1 1 0 0 -0 -1 -1 -1 -1 -0 -0 -0 3 12 4 -1 -2 -2 3 4 6 7 10 11 11 9 12 9 9 8 8 9 10 10 10 10 10 9 9 9 9 9
0 0 1 1 1 0 0 -0 -0 -1 -1 -0 -0 -0 3 7 7 1 -1 -1 2 4 6 7 9 9 11 11 10 11 11 9 9 9 9 9 10 10 10 8 8 8 8 9 9
0 0 0 1 0 0 -0 -0 -1 -1 -0 0 -0 0 5 10 3 0 0 1 4 5 7 7 8 8 10 10 11 11 10 10 9 9 10 10 11 11 10 9 9 9 10 10 9
1 1 1 1 1 0 -0 -0 -1 -1 0 0 -0 2 6 8 3 1 1 4 4 5 7 6 7 8 9 11 10 10 12 11 11 11 11 11 12 12 10 10 10 10 10 10 9
1 1 1 1 1 1 1 0 0 1 1 1 1 4 10 6 5 3 4 5 5 5 6 6 7 8 9 9 10 13 14 16 12 12 11 12 15 11 11 11 10 10 11 10 10
2 2 2 2 2 1 1 0 0 1 1 1 3 6 9 4 6 6 6 7 6 6 7 6 8 10 10 13 15 15 18 16 13 11 12 13 15 11 10 10 11 11 11 11 11
2 3 2 2 1 1 1 0 2 2 2 2 4 10 9 9 7 7 8 7 8 8 9 10 11 13 14 15 18 16 17 15 15 12 12 14 14 12 11 11 12 12 12 12 12
3 3 2 2 2 1 2 5 7 8 7 8 9 11 9 9 7 7 7 8 8 10 13 12 14 15 14 13 13 15 15 16 14 12 14 14 14 13 11 12 13 12 12 12 13
2 2 2 2 2 2 3 7 9 9 10 6 6 7 7 8 10 10 8 11 11 13 12 14 16 12 12 12 13 14 16 16 14 13 14 15 15 13 14 14 13 14 14 14 14
2 2 2 2 2 4 5 8 7 8 12 9 8 8 8 8 10 10 10 11 13 14 13 15 13 11 12 13 14 15 16 16 16 15 15 16 17 15 14 14 13 14 14 14 14
2 2 2 2 4 4 7 7 6 8 14 11 10 10 10 10 12 10 9 11 12 14 13 14 12 12 13 14 14 16 13 14 15 17 19 16 21 17 15 15 15 15 15 15 14
2 2 2 2 4 5 5 5 6 8 19 11 12 9 10 11 12 12 10 11 13 13 13 14 14 14 14 14 13 15 14 14 15 17 18 17 20 17 15 16 15 15 14 14 13
2 2 2 3 3 4 5 5 6 12 19 14 12 12 13 12 12 11 12 11 12 13 13 14 13 13 13 12 12 12 14 15 16 17 20 16 17 17 16 15 15 14 14 13 13
3 3 3 2 4 4 4 4 13 17 10 13 14 12 13 14 13 13 13 15 15 16 17 14 14 13 12 14 13 14 16 18 20 21 20 15 17 15 13 13 13 14 14 14 14
5 3 3 2 2 3 3 9 17 13 12 10 11 12 13 13 13 13 14 15 13 14 15 16 16 13 12 12 14 14 14 19 24 21 20 15 18 15 13 13 13 14 14 14 14
4 4 4 2 2 2 7 15 14 12 10 11 11 13 13 11 11 13 14 14 12 11 13 15 15 12 12 12 11 13 14 12 16 18 21 16 14 12 12 13 13 14 14 15 15
7 7 7 2 2 4 9 13 11 9 9 9 13 11 14 12 13 12 13 12 12 11 10 12 15 11 13 11 12 12 11 15 15 23 24 18 17 15 13 14 13 14 14 14 14
7 9 6 2 3 8 13 12 10 8 8 10 11 12 12 13 11 13 12 11 11 12 10 11 12 13 11 12 13 13 14 13 13 16 20 21 17 12 11 13 13 13 13 14 15
8 12 6 3 10 10 12 11 9 9 8 10 10 10 12 11 12 13 12 11 9 10 11 10 13 16 14 10 10 11 12 12 16 18 16 17 16 11 11 11 12 12 12 13 14
10 10 6 5 14 13 11 11 10 11 11 10 11 10 10 12 13 12 12 10 9 9 10 10 15 21 18 13 11 13 12 12 13 14 17 19 17 11 12 12 12 13 14 12 12
10 13 10 8 9 12 13 12 12 9 9 9 10 9 10 11 10 12 11 9 9 9 7 7 13 16 18 15 13 15 13 12 13 18 18 16 15 13 12 12 12 13 13 14 14
10 12 10 13 11 10 10 11 11 12 9 9 10 11 11 12 12 12 10 11 11 8 10 10 17 14 14 13 13 14 14 14 15 14 17 14 14 13 11 12 12 12 13 14 13
12 12 12 13 11 11 10 12 12 12 10 11 12 10 10 12 12 15 13 12 12 12 12 12 19 17 22 14 14 15 14 14 14 13 13 13 14 10 12 14 15 14 14 13 14
11 11 12 12 13 12 12 11 12 11 12 11 10 12 12 12 11 11 11 11 11 13 14 15 17 23 25 16 18 22 18 15 14 14 14 16 13 15 14 14 15 14 14 14 14